Location: Foligno
(42.9600°N, 12.7050°E)
Time: 16:48:54
(UTC+02:00)

ISS - Pass Details

Date: 13 July 2018
Orbit: 402 x 408 km, 51.6° (Epoch: 20 July)

Event Time Altitude Azimuth Distance (km) Brightness Sun altitude
Exits shadow 01:57:59 31° 38° (NE) 742 -2.0 -24.4°
Drops below altitude 10° 01:59:55 10° 51° (NE) 1,470 -0.4 -24.4°
Sets 02:02:01 0° 56° (NE) 2,334 0.7 -24.3°
